Maplewood, Minnesota, United States
Lat: 44.95N, Lon: 93W
Wx Zone: MNZ062
Local Info
Past Weather Observations for Thursday, February 4, 2016

NOTE: This archive is for the closest National Weather Service station to Maplewood. Information may differ from the station used for current weather conditions.

Click here for Long-term Archive

Time Weather Temperature Dewpoint Humidity Pressure Winds Precip Visibility
23:53
Clear
12°F / -11°C 7°F / -14°C 79% 30.3 in
(1026 mb)
W 8.1 mph
(W 13 kph)
- 10SM
22:53
Clear
16°F / -9°C 9°F / -13°C 73% 30.27 in
(1025 mb)
NW 5.8 mph
(NW 9 kph)
- 10SM
21:53
Clear
16°F / -9°C 10°F / -12°C 79% 30.27 in
(1025 mb)
WNW 8.1 mph
(WNW 13 kph)
- 10SM
20:53
Clear
19°F / -7°C 10°F / -12°C 68% 30.24 in
(1024 mb)
W 5.8 mph
(W 9 kph)
- 10SM
19:53
Clear
19°F / -7°C 12°F / -11°C 73% 30.24 in
(1024 mb)
W 6.9 mph
(W 11 kph)
- 10SM
18:53
Clear
21°F / -6°C 14°F / -10°C 74% 30.21 in
(1023 mb)
NW 5.8 mph
(NW 9 kph)
- 10SM
17:53
Partly Cloudy
25°F / -4°C 16°F / -9°C 69% 30.21 in
(1023 mb)
NNW 12.7 mph
(NNW 20 kph)
- 10SM
16:53
Overcast
27°F / -3°C 19°F / -7°C 74% 30.18 in
(1022 mb)
NNW 5.8 mph
(NNW 9 kph)
- 10SM
15:53
Overcast
25°F / -4°C 19°F / -7°C 80% 30.15 in
(1021 mb)
NW 11.5 mph
(NW 19 kph)
- 10SM
15:22
Overcast
25°F / -4°C 19°F / -7°C 80% 30.12 in
(1020 mb)
NW 12.7 mph
(NW 20 kph)
- 9SM
14:53
Overcast
25°F / -4°C 19°F / -7°C 80% 30.12 in
(1020 mb)
NW 6.9 mph
(NW 11 kph)
- 8SM
14:42
Overcast
25°F / -4°C 19°F / -7°C 80% 30.12 in
(1020 mb)
NW 4.6 mph
(NW 7 kph)
- 7SM
13:53
Overcast
Fog And Mist
23°F / -5°C 19°F / -7°C 86% 30.09 in
(1019 mb)
Calm 0.00 in
(0.00 mm)
6SM
13:37
Overcast
Fog And Mist
23°F / -5°C 19°F / -7°C 86% 30.09 in
(1019 mb)
Calm 0.00 in
(0.00 mm)
6SM
13:15
Overcast
Light Snow
23°F / -5°C 19°F / -7°C 86% 30.09 in
(1019 mb)
Calm 0.00 in
(0.00 mm)
3SM
12:53
Overcast
Light Snow
23°F / -5°C 19°F / -7°C 86% 30.09 in
(1019 mb)
Calm 0.00 in
(0.00 mm)
1 1/2SM
12:41
Overcast
Light Snow
21°F / -6°C 18°F / -8°C 86% 30.09 in
(1019 mb)
Calm 0.00 in
(0.00 mm)
1 3/4SM
12:34
Overcast
Light Snow
21°F / -6°C 18°F / -8°C 86% 30.09 in
(1019 mb)
Calm 0.00 in
(0.00 mm)
3SM
12:25
Overcast
Light Snow
23°F / -5°C 18°F / -8°C 80% 30.09 in
(1019 mb)
Calm 0.00 in
(0.00 mm)
1 1/2SM
12:17
Overcast
Light Snow
21°F / -6°C 18°F / -8°C 86% 30.09 in
(1019 mb)
Calm 0.00 in
(0.00 mm)
1SM
12:00
Overcast
Light Snow
21°F / -6°C 18°F / -8°C 86% 30.09 in
(1019 mb)
Calm 0.00 in
(0.00 mm)
1 1/2SM
11:53
Overcast
Light Snow
21°F / -6°C 16°F / -9°C 80% 30.12 in
(1020 mb)
Calm 0.00 in
(0.00 mm)
1SM
11:41
Overcast
Light Snow
21°F / -6°C 16°F / -9°C 80% 30.12 in
(1020 mb)
Calm 0.00 in
(0.00 mm)
1SM
11:35
Overcast
Light Snow
19°F / -7°C 16°F / -9°C 86% 30.12 in
(1020 mb)
Calm 0.00 in
(0.00 mm)
1 3/4SM
11:31
Overcast
Light Snow
19°F / -7°C 16°F / -9°C 86% 30.09 in
(1019 mb)
Calm 0.00 in
(0.00 mm)
2 1/2SM
10:53
Overcast
18°F / -8°C 12°F / -11°C 79% 30.09 in
(1019 mb)
SE 8.1 mph
(SE 13 kph)
0.00 in
(0.00 mm)
7SM
10:03
Overcast
Light Snow
14°F / -10°C 10°F / -12°C 85% 30.09 in
(1019 mb)
SSE 5.8 mph
(SSE 9 kph)
0.00 in
(0.00 mm)
3SM
09:53
Overcast
Light Snow
14°F / -10°C 10°F / -12°C 85% 30.09 in
(1019 mb)
SSE 8.1 mph
(SSE 13 kph)
0.00 in
(0.00 mm)
2SM
09:44
Overcast
Light Snow
12°F / -11°C 10°F / -12°C 92% 30.09 in
(1019 mb)
SE 8.1 mph
(SE 13 kph)
0.00 in
(0.00 mm)
2SM
09:40
Overcast
Light Snow
12°F / -11°C 10°F / -12°C 92% 30.09 in
(1019 mb)
SE 8.1 mph
(SE 13 kph)
0.00 in
(0.00 mm)
1 1/4SM
09:35
Overcast
Light Snow
12°F / -11°C 10°F / -12°C 92% 30.09 in
(1019 mb)
SE 6.9 mph
(SE 11 kph)
0.00 in
(0.00 mm)
3/4SM
09:15
Overcast
Light Snow
12°F / -11°C 9°F / -13°C 85% 30.12 in
(1020 mb)
SSE 6.9 mph
(SSE 11 kph)
0.00 in
(0.00 mm)
1SM
08:58
Overcast
Light Snow
12°F / -11°C 9°F / -13°C 85% 30.12 in
(1020 mb)
SE 5.8 mph
(SE 9 kph)
0.00 in
(0.00 mm)
1 1/4SM
08:52
Overcast
Light Snow
12°F / -11°C 9°F / -13°C 85% 30.12 in
(1020 mb)
SSE 5.8 mph
(SSE 9 kph)
0.00 in
(0.00 mm)
1 3/4SM
08:51
Overcast
Light Snow
12°F / -11°C 9°F / -13°C 85% 30.12 in
(1020 mb)
SSE 5.8 mph
(SSE 9 kph)
0.00 in
(0.00 mm)
1 3/4SM
07:53
Partly Cloudy
9°F / -13°C 5°F / -15°C 85% 30.09 in
(1019 mb)
SSE 6.9 mph
(SSE 11 kph)
- 9SM
07:22
Partly Cloudy
9°F / -13°C 5°F / -15°C 85% 30.09 in
(1019 mb)
S 6.9 mph
(S 11 kph)
- 10SM
06:53
Mostly Cloudy
9°F / -13°C 7°F / -14°C 92% 30.09 in
(1019 mb)
SSE 6.9 mph
(SSE 11 kph)
- 10SM
05:53
Overcast
10°F / -12°C 7°F / -14°C 85% 30.09 in
(1019 mb)
SE 5.8 mph
(SE 9 kph)
- 10SM
05:40
Overcast
10°F / -12°C 7°F / -14°C 85% 30.09 in
(1019 mb)
SE 5.8 mph
(SE 9 kph)
- 10SM
04:53
Mostly Cloudy
9°F / -13°C 5°F / -15°C 85% 30.09 in
(1019 mb)
SSE 6.9 mph
(SSE 11 kph)
- 10SM
03:53
Mostly Cloudy
9°F / -13°C 7°F / -14°C 92% 30.09 in
(1019 mb)
SSE 6.9 mph
(SSE 11 kph)
- 10SM
02:53
Overcast
10°F / -12°C 9°F / -13°C 92% 30.09 in
(1019 mb)
SE 6.9 mph
(SE 11 kph)
- 10SM
01:53
Clear
9°F / -13°C 5°F / -15°C 85% 30.09 in
(1019 mb)
Calm - 10SM
00:53
Clear
9°F / -13°C 7°F / -14°C 92% 30.12 in
(1020 mb)
Calm - 10SM
Time Weather Temperature Dewpoint Humidity Pressure Winds Precip Visibility


Weather for websites

WeatherForYou.com, LLC is not responsible for any damages or problems caused by this service. Current weather conditions are obtained from the closest station including government and personal stations which may have varying degrees of accuracy. Weather forecasts are derived from the NOAA NDFD. Like all things, this site belongs to Jesus Christ... He just trusts us to maintain it. If you have any questions or comments email webmaster@weatherforyou.com

Copyright © 2016, WeatherForYou.com LLC. All rights reserved.